Погода в Межадоре

Россия / Республика Коми     61°09′15″N   50°20′16″E
темп.,
°C
ветер,
м/с
пор.,
м/с
влажн.,
%
обл.,
%
осадки,
мм/ч
давл.,
гПа
погр.,
м
5 августа, чт
чт500:00+15сз2880100 0.0 1011235
03:00+12сз398346 0.0 1012232
06:00+14сз3974100 0.0 1013336
09:00+18сз4747100 0.0 10141047
12:00+20сз45385 0.0 10141845
15:00+21сз45356 0.0 10152175
18:00+18сз37483 0.0 1016654
21:00+12с310675 0.0 1017326
6 августа, пт
пт600:00+9с11783 0.0 101813
03:00+8сз22825 0.0 101919
06:00+12сз24695 0.0 1019238
09:00+16ссз35535 0.0 10191200
12:00+19ссз353963 0.0 10191727
15:00+19ссз343877 0.0 10191843
18:00+18ссз245449 0.0 1019206
21:00+12ссв237559 0.0 102095
7 августа, сб
сб700:00+9ссв1289100 0.0 102115
03:00+9ссз2282100 0.0 102151
06:00+12с2572100 0.0 1022242
09:00+16ссв355235 0.0 10211274
12:00+19ссз34411 0.0 10201817
15:00+20с34381 0.0 10201932
18:00+18ссв25521 0.0 1020237
21:00+11ссв227181 0.0 102120
8 августа, вс
вс800:00+9св2583100 0.0 102298
03:00+7ссв229161 0.0 102336
06:00+11ссв247316 0.0 1024240
09:00+15ссв235431 0.0 1023904
12:00+18ссв234589 0.0 10221296
15:00+20с224190 0.0 10221480
18:00+18ссв115884 0.0 102226
21:00+12ссв227249 0.0 102320
9 августа, пн
пн900:00+10в2495100 0.0 102384
03:00+9в239798 0.0 102448
06:00+12в2481100 0.0 1023160
09:00+16вюв236194 0.0 1022583
12:00+14ююз2371100 0.0 1022154
15:00+14ююз1379100 0.1 1021106
18:00+12ююз2390100 0.2 102082
21:00+12ю1189100 0.3 102034